| time (UTC) | temp F | wind direction | speed MPH | gust MPH | rain 1hr in | rain 24hr in | rain mn in | humidity % | barometer mb |
| 20260503060325 | 73 | 194 | 1.0 | 1.0 | 0.00 | 0.00 | 0.00 | 96 | 1018.2 |
| 20260503054814 | 72 | 193 | 1.0 | 1.0 | 0.00 | 0.00 | 0.00 | 97 | 1017.8 |
| 20260503054309 | 72 | 224 | 2.0 | 2.0 | 0.00 | 0.00 | 0.00 | 97 | 1017.8 |
| 20260503053807 | 72 | 197 | 0.0 | 1.0 | 0.00 | 0.00 | 0.00 | 97 | 1018.2 |
| 20260503053306 | 72 | 194 | 0.0 | 1.0 | 0.00 | 0.00 | 0.00 | 97 | 1018.2 |
| 20260503052801 | 72 | 169 | 1.0 | 2.0 | 0.00 | 0.00 | 0.00 | 98 | 1018.5 |
| 20260503052259 | 72 | 168 | 1.0 | 1.0 | 0.00 | 0.00 | 0.00 | 98 | 1018.5 |
| 20260503051754 | 72 | 177 | 3.0 | 3.0 | 0.00 | 0.00 | 0.00 | 97 | 1018.2 |
| 20260503051251 | 72 | 189 | 0.0 | 0.0 | 0.00 | 0.00 | 0.00 | 97 | 1018.5 |
| 20260503050748 | 72 | 166 | 2.0 | 2.0 | 0.00 | 0.00 | 0.00 | 98 | 1018.2 |
| 20260503050244 | 72 | 177 | 0.0 | 0.0 | 0.00 | 0.00 | 0.00 | 98 | 1018.5 |
| 20260503045742 | 72 | 171 | 0.0 | 0.0 | 0.00 | 0.00 | 0.00 | 98 | 1018.5 |
| 20260503045240 | 72 | 165 | 2.0 | 2.0 | 0.00 | 0.00 | 0.00 | 98 | 1018.5 |
| 20260503044736 | 72 | 175 | 0.0 | 0.0 | 0.00 | 0.00 | 0.00 | 98 | 1018.5 |
| 20260503044233 | 72 | 172 | 0.0 | 0.0 | 0.00 | 0.00 | 0.00 | 98 | 1018.5 |
| 20260503043730 | 72 | 136 | 1.0 | 1.0 | 0.00 | 0.00 | 0.00 | 98 | 1018.5 |
| 20260503043227 | 72 | 144 | 1.0 | 1.0 | 0.00 | 0.00 | 0.00 | 98 | 1018.2 |
| 20260503042723 | 72 | 179 | 0.0 | 0.0 | 0.00 | 0.00 | 0.00 | 98 | 1018.5 |
| 20260503042220 | 72 | 151 | 2.0 | 3.0 | 0.00 | 0.00 | 0.00 | 98 | 1018.5 |
| 20260503041716 | 72 | 174 | 1.0 | 1.0 | 0.00 | 0.00 | 0.00 | 99 | 1018.5 |
| 20260503041214 | 72 | 165 | 2.0 | 2.0 | 0.00 | 0.00 | 0.00 | 99 | 1018.8 |
| 20260503040711 | 72 | 166 | 1.0 | 2.0 | 0.00 | 0.00 | 0.00 | 99 | 1018.5 |
| 20260503040209 | 72 | 172 | 1.0 | 1.0 | 0.00 | 0.00 | 0.00 | 99 | 1018.5 |
| 20260503035705 | 72 | 181 | 0.0 | 0.0 | 0.00 | 0.50 | 0.50 | 99 | 1018.2 |
| 20260503035202 | 72 | 179 | 0.0 | 0.0 | 0.00 | 0.50 | 0.50 | 99 | 1018.2 |
| 20260503034700 | 71 | 174 | 0.0 | 0.0 | 0.00 | 0.50 | 0.50 | 99 | 1018.2 |
| 20260503034156 | 71 | 187 | 0.0 | 1.0 | 0.00 | 0.50 | 0.50 | 98 | 1017.8 |
| 20260503033654 | 71 | 174 | 0.0 | 0.0 | 0.00 | 0.50 | 0.50 | 98 | 1017.5 |
| 20260503033152 | 71 | 182 | 0.0 | 0.0 | 0.00 | 0.50 | 0.50 | 98 | 1017.8 |
| 20260503032649 | 71 | 186 | 1.0 | 1.0 | 0.00 | 0.50 | 0.50 | 98 | 1017.8 |
| 20260503032148 | 71 | 182 | 0.0 | 0.0 | 0.00 | 0.50 | 0.50 | 98 | 1017.8 |
| 20260503031645 | 71 | 175 | 0.0 | 1.0 | 0.00 | 0.50 | 0.50 | 98 | 1017.5 |
| 20260503031143 | 72 | 160 | 2.0 | 2.0 | 0.00 | 0.50 | 0.50 | 98 | 1017.5 |
| 20260503030638 | 72 | 175 | 2.0 | 2.0 | 0.00 | 0.50 | 0.50 | 98 | 1017.5 |
| 20260503030135 | 71 | 171 | 2.0 | 2.0 | 0.00 | 0.50 | 0.50 | 98 | 1017.1 |
| 20260503025632 | 72 | 172 | 1.0 | 2.0 | 0.00 | 0.50 | 0.50 | 99 | 1016.8 |
| 20260503025130 | 71 | 165 | 0.0 | 0.0 | 0.00 | 0.50 | 0.50 | 99 | 1016.8 |
| 20260503024626 | 72 | 161 | 0.0 | 0.0 | 0.00 | 0.50 | 0.50 | 99 | 1017.1 |
| 20260503024123 | 71 | 153 | 1.0 | 1.0 | 0.00 | 0.50 | 0.50 | 99 | 1017.1 |
| 20260503023620 | 71 | 153 | 0.0 | 0.0 | 0.00 | 0.50 | 0.50 | 99 | 1017.5 |
| 20260503023118 | 71 | 181 | 1.0 | 1.0 | 0.00 | 0.50 | 0.50 | 99 | 1017.8 |
| 20260503022613 | 71 | 195 | 1.0 | 1.0 | 0.00 | 0.50 | 0.50 | 99 | 1017.5 |
| 20260503022108 | 71 | 165 | 0.0 | 0.0 | 0.00 | 0.50 | 0.50 | 99 | 1017.1 |
| 20260503021606 | 71 | 168 | 0.0 | 0.0 | 0.00 | 0.50 | 0.50 | 99 | 1017.1 |
| 20260503021102 | 71 | 166 | 2.0 | 2.0 | 0.00 | 0.50 | 0.50 | 99 | 1016.8 |
| 20260503020559 | 71 | 155 | 3.0 | 3.0 | 0.00 | 0.50 | 0.50 | 99 | 1017.1 |
| 20260503020056 | 71 | 173 | 0.0 | 0.0 | 0.00 | 0.50 | 0.50 | 99 | 1017.1 |
| 20260503015553 | 71 | 160 | 2.0 | 2.0 | 0.00 | 0.50 | 0.50 | 99 | 1017.1 |
| 20260503015050 | 72 | 157 | 2.0 | 3.0 | 0.00 | 0.50 | 0.50 | 99 | 1017.5 |
| 20260503014546 | 72 | 167 | 4.0 | 5.0 | 0.00 | 0.50 | 0.50 | 99 | 1017.5 |
| 20260503014044 | 72 | 180 | 3.0 | 3.0 | 0.00 | 0.50 | 0.50 | 99 | 1017.5 |
| 20260503013541 | 72 | 178 | 1.0 | 1.0 | 0.00 | 0.50 | 0.50 | 99 | 1017.5 |
| 20260503013039 | 72 | 182 | 3.0 | 5.0 | 0.00 | 0.50 | 0.50 | 99 | 1017.5 |
| 20260503012536 | 72 | 196 | 2.0 | 2.0 | 0.00 | 0.50 | 0.50 | 99 | 1017.1 |
| 20260503012032 | 72 | 177 | 4.0 | 5.0 | 0.00 | 0.50 | 0.50 | 99 | 1016.8 |
| 20260503011529 | 72 | 181 | 3.0 | 5.0 | 0.00 | 0.50 | 0.50 | 99 | 1016.5 |
| 20260503011026 | 72 | 128 | 2.0 | 2.0 | 0.00 | 0.50 | 0.50 | 99 | 1015.8 |
| 20260503010522 | 72 | 96 | 1.0 | 2.0 | 0.00 | 0.50 | 0.50 | 99 | 1015.8 |
| 20260503010020 | 72 | 154 | 0.0 | 0.0 | 0.01 | 0.50 | 0.50 | 99 | 1015.8 |
| 20260503005517 | 72 | 164 | 0.0 | 0.0 | 0.01 | 0.50 | 0.50 | 99 | 1015.8 |
| 20260503005014 | 72 | 161 | 1.0 | 2.0 | 0.01 | 0.50 | 0.50 | 99 | 1015.8 |
| 20260503004510 | 72 | 127 | 1.0 | 1.0 | 0.01 | 0.50 | 0.50 | 99 | 1016.5 |
| 20260503004008 | 72 | 190 | 1.0 | 1.0 | 0.01 | 0.50 | 0.50 | 99 | 1016.5 |
| 20260503003505 | 72 | 288 | 2.0 | 2.0 | 0.01 | 0.50 | 0.50 | 99 | 1016.5 |
| 20260503003002 | 72 | 187 | 1.0 | 1.0 | 0.01 | 0.50 | 0.50 | 99 | 1015.8 |
| 20260503002459 | 72 | 171 | 3.0 | 3.0 | 0.01 | 0.50 | 0.50 | 99 | 1015.8 |
| 20260503001955 | 72 | 174 | 3.0 | 3.0 | 0.01 | 0.50 | 0.50 | 99 | 1015.4 |
| 20260503001452 | 72 | 207 | 0.0 | 0.0 | 0.00 | 0.49 | 0.49 | 99 | 1015.4 |
| 20260503000949 | 72 | 167 | 0.0 | 0.0 | 0.00 | 0.49 | 0.49 | 99 | 1015.4 |
| 20260503000446 | 72 | 152 | 2.0 | 3.0 | 0.00 | 0.49 | 0.49 | 99 | 1015.8 |
| 20260502235944 | 72 | 150 | 4.0 | 6.0 | 0.02 | 0.49 | 0.49 | 99 | 1016.5 |
| 20260502235440 | 72 | 179 | 5.0 | 7.0 | 0.02 | 0.49 | 0.49 | 99 | 1016.1 |
| 20260502234938 | 72 | 188 | 4.0 | 6.0 | 0.02 | 0.49 | 0.49 | 99 | 1015.4 |
| 20260502234434 | 72 | 172 | 9.0 | 11.0 | 0.02 | 0.49 | 0.49 | 99 | 1014.4 |
| 20260502233932 | 72 | 139 | 7.0 | 8.0 | 0.02 | 0.49 | 0.49 | 99 | 1014.8 |
| 20260502233426 | 72 | 164 | 4.0 | 6.0 | 0.02 | 0.49 | 0.49 | 99 | 1015.1 |
| 20260502232924 | 73 | 210 | 1.0 | 1.0 | 0.02 | 0.49 | 0.49 | 99 | 1015.4 |
| 20260502232420 | 73 | 182 | 4.0 | 5.0 | 0.02 | 0.49 | 0.49 | 99 | 1015.8 |
| 20260502231917 | 73 | 132 | 1.0 | 2.0 | 0.02 | 0.49 | 0.49 | 99 | 1015.4 |
| 20260502231414 | 73 | 192 | 2.0 | 2.0 | 0.01 | 0.48 | 0.48 | 99 | 1015.8 |
| 20260502230913 | 73 | 179 | 1.0 | 2.0 | 0.01 | 0.48 | 0.48 | 99 | 1016.1 |
| 20260502230411 | 72 | 177 | 3.0 | 3.0 | 0.01 | 0.48 | 0.48 | 99 | 1015.8 |
| 20260502225908 | 73 | 169 | 0.0 | 0.0 | 0.06 | 0.47 | 0.47 | 99 | 1015.8 |
| 20260502225404 | 73 | 179 | 0.0 | 0.0 | 0.06 | 0.47 | 0.47 | 99 | 1015.1 |
| 20260502224901 | 73 | 144 | 0.0 | 0.0 | 0.06 | 0.47 | 0.47 | 99 | 1015.1 |
| 20260502224357 | 72 | 182 | 0.0 | 0.0 | 0.06 | 0.47 | 0.47 | 99 | 1015.4 |
| 20260502223854 | 72 | 164 | 3.0 | 5.0 | 0.06 | 0.47 | 0.47 | 99 | 1015.8 |
| 20260502223352 | 73 | 172 | 2.0 | 3.0 | 0.06 | 0.47 | 0.47 | 99 | 1015.8 |
| 20260502222850 | 73 | 183 | 2.0 | 3.0 | 0.06 | 0.47 | 0.47 | 99 | 1015.4 |
| 20260502222348 | 73 | 165 | 0.0 | 0.0 | 0.05 | 0.46 | 0.46 | 99 | 1015.1 |
| 20260502221843 | 73 | 170 | 2.0 | 2.0 | 0.04 | 0.45 | 0.45 | 98 | 1015.4 |
| 20260502221339 | 72 | 175 | 4.0 | 6.0 | 0.03 | 0.44 | 0.44 | 99 | 1015.8 |
| 20260502220837 | 73 | 111 | 1.0 | 1.0 | 0.02 | 0.43 | 0.43 | 98 | 1015.4 |
| 20260502220332 | 73 | 169 | 1.0 | 2.0 | 0.01 | 0.42 | 0.42 | 98 | 1015.8 |
| 20260502215829 | 73 | 183 | 1.0 | 2.0 | 0.12 | 0.41 | 0.41 | 98 | 1015.8 |
| 20260502215327 | 72 | 94 | 1.0 | 1.0 | 0.11 | 0.40 | 0.40 | 98 | 1015.1 |
| 20260502214823 | 73 | 164 | 2.0 | 2.0 | 0.11 | 0.40 | 0.40 | 98 | 1015.4 |
| 20260502214320 | 73 | 174 | 0.0 | 0.0 | 0.10 | 0.39 | 0.39 | 98 | 1015.4 |
| 20260502213817 | 72 | 182 | 0.0 | 0.0 | 0.09 | 0.38 | 0.38 | 98 | 1015.4 |
| 20260502213314 | 72 | 80 | 0.0 | 1.0 | 0.09 | 0.38 | 0.38 | 98 | 1015.1 |
| 20260502212813 | 72 | 163 | 0.0 | 0.0 | 0.09 | 0.38 | 0.38 | 98 | 1015.8 |
| 20260502212311 | 72 | 170 | 0.0 | 0.0 | 0.09 | 0.38 | 0.38 | 98 | 1015.4 |
| 20260502211808 | 72 | 134 | 1.0 | 1.0 | 0.09 | 0.38 | 0.38 | 98 | 1015.1 |
| 20260502211303 | 72 | 79 | 1.0 | 1.0 | 0.08 | 0.37 | 0.37 | 97 | 1014.8 |
| 20260502210801 | 72 | 300 | 5.0 | 7.0 | 0.02 | 0.31 | 0.31 | 97 | 1014.8 |
| 20260502210258 | 72 | 298 | 4.0 | 6.0 | 0.00 | 0.29 | 0.29 | 97 | 1015.8 |
| 20260502205755 | 72 | 289 | 3.0 | 5.0 | 0.29 | 0.29 | 0.29 | 96 | 1015.4 |
| 20260502205251 | 72 | 25 | 2.0 | 3.0 | 0.22 | 0.22 | 0.22 | 96 | 1015.4 |
| 20260502204749 | 73 | 291 | 0.0 | 1.0 | 0.18 | 0.18 | 0.18 | 95 | 1015.4 |
| 20260502204246 | 73 | 284 | 4.0 | 6.0 | 0.17 | 0.17 | 0.17 | 95 | 1015.1 |
| 20260502203743 | 74 | 324 | 5.0 | 7.0 | 0.17 | 0.17 | 0.17 | 93 | 1015.1 |
| 20260502203236 | 76 | 5 | 3.0 | 7.0 | 0.15 | 0.15 | 0.15 | 89 | 1014.4 |
| 20260502202735 | 80 | 304 | 5.0 | 7.0 | 0.00 | 0.00 | 0.00 | 80 | 1014.8 |
| 20260502202234 | 82 | 194 | 2.0 | 3.0 | 0.00 | 0.00 | 0.00 | 85 | 1014.4 |
| 20260502201731 | 82 | 225 | 6.0 | 7.0 | 0.00 | 0.00 | 0.00 | 84 | 1014.4 |
| 20260502201227 | 82 | 170 | 7.0 | 8.0 | 0.00 | 0.00 | 0.00 | 83 | 1014.4 |
| 20260502200723 | 82 | 215 | 3.0 | 6.0 | 0.00 | 0.00 | 0.00 | 83 | 1014.4 |
| 20260502200220 | 82 | 226 | 5.0 | 7.0 | 0.00 | 0.00 | 0.00 | 82 | 1014.8 |
| 20260502195719 | 83 | 189 | 6.0 | 11.0 | 0.00 | 0.00 | 0.00 | 82 | 1014.4 |
| 20260502195215 | 82 | 168 | 7.0 | 9.0 | 0.00 | 0.00 | 0.00 | 83 | 1014.4 |
| 20260502194711 | 82 | 191 | 6.0 | 8.0 | 0.00 | 0.00 | 0.00 | 83 | 1014.4 |
| 20260502194209 | 82 | 179 | 3.0 | 6.0 | 0.00 | 0.00 | 0.00 | 83 | 1014.8 |
| 20260502193704 | 82 | 239 | 8.0 | 10.0 | 0.00 | 0.00 | 0.00 | 82 | 1014.8 |
| 20260502193202 | 82 | 218 | 5.0 | 7.0 | 0.00 | 0.00 | 0.00 | 82 | 1014.8 |
| 20260502192656 | 83 | 195 | 10.0 | 15.0 | 0.00 | 0.00 | 0.00 | 81 | 1015.1 |
| 20260502192154 | 83 | 282 | 2.0 | 3.0 | 0.00 | 0.00 | 0.00 | 81 | 1015.1 |
| 20260502191651 | 82 | 219 | 5.0 | 8.0 | 0.00 | 0.00 | 0.00 | 82 | 1015.1 |
| 20260502191148 | 83 | 234 | 7.0 | 10.0 | 0.00 | 0.00 | 0.00 | 81 | 1015.1 |
| 20260502190646 | 83 | 201 | 12.0 | 16.0 | 0.00 | 0.00 | 0.00 | 79 | 1015.1 |
| 20260502190144 | 83 | 29 | 2.0 | 3.0 | 0.00 | 0.00 | 0.00 | 80 | 1015.4 |
| 20260502185638 | 83 | 196 | 8.0 | 11.0 | 0.00 | 0.00 | 0.00 | 79 | 1015.1 |
| 20260502185135 | 83 | 203 | 7.0 | 10.0 | 0.00 | 0.00 | 0.00 | 80 | 1015.1 |
| 20260502184631 | 84 | 166 | 5.0 | 10.0 | 0.00 | 0.00 | 0.00 | 79 | 1015.1 |
| 20260502184127 | 84 | 264 | 2.0 | 3.0 | 0.00 | 0.00 | 0.00 | 79 | 1015.4 |
| 20260502183623 | 84 | 175 | 8.0 | 10.0 | 0.00 | 0.00 | 0.00 | 79 | 1015.4 |
| 20260502183120 | 84 | 172 | 6.0 | 9.0 | 0.00 | 0.00 | 0.00 | 79 | 1015.8 |
| 20260502182615 | 84 | 232 | 11.0 | 14.0 | 0.00 | 0.00 | 0.00 | 77 | 1015.4 |
| 20260502182110 | 84 | 278 | 3.0 | 5.0 | 0.00 | 0.00 | 0.00 | 78 | 1015.4 |
| 20260502181608 | 84 | 201 | 10.0 | 15.0 | 0.00 | 0.00 | 0.00 | 78 | 1015.4 |
| 20260502181102 | 85 | 217 | 5.0 | 9.0 | 0.00 | 0.00 | 0.00 | 76 | 1015.4 |
| 20260502180559 | 85 | 207 | 9.0 | 15.0 | 0.00 | 0.00 | 0.00 | 76 | 1015.8 |
| 20260502170512 | 85 | 173 | 10.0 | 14.0 | 0.00 | 0.00 | 0.00 | 80 | 1016.1 |
| 20260502163955 | 84 | 184 | 7.0 | 13.0 | 0.00 | 0.00 | 0.00 | 81 | 1016.1 |
| 20260502163451 | 84 | 161 | 7.0 | 11.0 | 0.00 | 0.00 | 0.00 | 82 | 1016.1 |
| 20260502162949 | 84 | 161 | 6.0 | 7.0 | 0.00 | 0.00 | 0.00 | 80 | 1016.1 |
| 20260502162446 | 84 | 167 | 6.0 | 9.0 | 0.00 | 0.00 | 0.00 | 80 | 1016.5 |
| 20260502161943 | 84 | 182 | 6.0 | 7.0 | 0.00 | 0.00 | 0.00 | 80 | 1016.1 |
| 20260502161439 | 85 | 202 | 5.0 | 11.0 | 0.00 | 0.00 | 0.00 | 79 | 1016.5 |
| 20260502160937 | 85 | 180 | 8.0 | 13.0 | 0.00 | 0.00 | 0.00 | 78 | 1016.1 |
| 20260502160434 | 84 | 199 | 5.0 | 8.0 | 0.00 | 0.00 | 0.00 | 78 | 1016.1 |
| 20260502151913 | 84 | 284 | 8.0 | 10.0 | 0.00 | 0.00 | 0.00 | 79 | 1015.8 |
| 20260502151409 | 84 | 181 | 10.0 | 18.0 | 0.00 | 0.00 | 0.00 | 80 | 1015.8 |
| 20260502150907 | 84 | 202 | 13.0 | 26.0 | 0.00 | 0.00 | 0.00 | 80 | 1015.8 |
| 20260502150403 | 84 | 169 | 12.0 | 21.0 | 0.00 | 0.00 | 0.00 | 80 | 1015.8 |
| 20260502130249 | 78 | 205 | 2.0 | 2.0 | 0.00 | 0.00 | 0.00 | 89 | 1014.8 |
| 20260502123735 | 76 | 180 | 2.0 | 2.0 | 0.00 | 0.00 | 0.00 | 89 | 1014.8 |
| 20260502123232 | 76 | 170 | 0.0 | 0.0 | 0.00 | 0.00 | 0.00 | 88 | 1014.8 |
| 20260502122728 | 75 | 164 | 1.0 | 1.0 | 0.00 | 0.00 | 0.00 | 88 | 1014.8 |
| 20260502122224 | 75 | 175 | 0.0 | 0.0 | 0.00 | 0.00 | 0.00 | 90 | 1014.8 |
| 20260502121723 | 74 | 178 | 0.0 | 0.0 | 0.00 | 0.00 | 0.00 | 90 | 1014.8 |
| 20260502121220 | 73 | 170 | 0.0 | 0.0 | 0.00 | 0.00 | 0.00 | 91 | 1014.8 |
| 20260502120716 | 73 | 164 | 0.0 | 0.0 | 0.00 | 0.00 | 0.00 | 92 | 1014.8 |
| 20260502120213 | 72 | 161 | 0.0 | 0.0 | 0.00 | 0.00 | 0.00 | 94 | 1014.4 |
| 20260502115711 | 72 | 167 | 2.0 | 2.0 | 0.00 | 0.00 | 0.00 | 94 | 1014.8 |
| 20260502115208 | 71 | 181 | 1.0 | 2.0 | 0.00 | 0.00 | 0.00 | 95 | 1014.4 |
| 20260502114704 | 71 | 172 | 1.0 | 1.0 | 0.00 | 0.00 | 0.00 | 96 | 1014.8 |
| 20260502114201 | 71 | 151 | 1.0 | 1.0 | 0.00 | 0.00 | 0.00 | 96 | 1014.4 |
| 20260502113658 | 70 | 176 | 0.0 | 1.0 | 0.00 | 0.00 | 0.00 | 97 | 1014.4 |
| 20260502113156 | 70 | 177 | 1.0 | 1.0 | 0.00 | 0.00 | 0.00 | 97 | 1014.4 |
| 20260502112654 | 70 | 171 | 2.0 | 2.0 | 0.00 | 0.00 | 0.00 | 98 | 1014.4 |
| 20260502112151 | 69 | 181 | 2.0 | 2.0 | 0.00 | 0.00 | 0.00 | 98 | 1014.8 |
| 20260502111648 | 69 | 168 | 0.0 | 1.0 | 0.00 | 0.00 | 0.00 | 98 | 1014.4 |
| 20260502111146 | 69 | 165 | 0.0 | 0.0 | 0.00 | 0.00 | 0.00 | 98 | 1014.4 |
| 20260502110643 | 69 | 195 | 3.0 | 3.0 | 0.00 | 0.00 | 0.00 | 99 | 1014.4 |
| 20260502110140 | 69 | 172 | 0.0 | 0.0 | 0.00 | 0.00 | 0.00 | 99 | 1014.1 |
| 20260502105638 | 69 | 164 | 3.0 | 5.0 | 0.00 | 0.00 | 0.00 | 99 | 1014.1 |
| 20260502105135 | 69 | 182 | 4.0 | 6.0 | 0.00 | 0.00 | 0.00 | 99 | 1014.1 |
| 20260502104632 | 69 | 163 | 4.0 | 5.0 | 0.00 | 0.00 | 0.00 | 99 | 1014.1 |
| 20260502104130 | 69 | 166 | 4.0 | 6.0 | 0.00 | 0.00 | 0.00 | 99 | 1014.1 |
| 20260502103627 | 69 | 184 | 1.0 | 2.0 | 0.00 | 0.00 | 0.00 | 99 | 1014.1 |
| 20260502103125 | 69 | 180 | 4.0 | 5.0 | 0.00 | 0.00 | 0.00 | 99 | 1014.1 |
| 20260502102621 | 69 | 165 | 3.0 | 5.0 | 0.00 | 0.00 | 0.00 | 99 | 1014.1 |
| 20260502102112 | 69 | 159 | 4.0 | 5.0 | 0.00 | 0.00 | 0.00 | 99 | 1014.4 |
| 20260502101610 | 69 | 174 | 3.0 | 5.0 | 0.00 | 0.00 | 0.00 | 99 | 1014.4 |
| 20260502101108 | 69 | 184 | 4.0 | 5.0 | 0.00 | 0.00 | 0.00 | 99 | 1014.4 |
| 20260502100607 | 69 | 184 | 2.0 | 2.0 | 0.00 | 0.00 | 0.00 | 99 | 1014.4 |
| 20260502100105 | 69 | 191 | 2.0 | 2.0 | 0.00 | 0.00 | 0.00 | 99 | 1014.8 |
| 20260502091038 | 69 | 146 | 1.0 | 1.0 | 0.00 | 0.00 | 0.00 | 99 | 1014.8 |
| 20260502090535 | 70 | 160 | 0.0 | 0.0 | 0.00 | 0.00 | 0.00 | 99 | 1014.8 |
| 20260502071430 | 70 | 172 | 0.0 | 0.0 | 0.00 | 0.00 | 0.00 | 98 | 1015.1 |
| 20260502070928 | 70 | 172 | 0.0 | 0.0 | 0.00 | 0.00 | 0.00 | 98 | 1015.1 |
| 20260502070425 | 70 | 172 | 0.0 | 0.0 | 0.00 | 0.00 | 0.00 | 98 | 1015.1 |
| 20260502065924 | 70 | 179 | 0.0 | 0.0 | 0.00 | 0.00 | 0.00 | 98 | 1015.1 |
| 20260502065422 | 70 | 179 | 0.0 | 0.0 | 0.00 | 0.00 | 0.00 | 98 | 1015.4 |
| 20260502064920 | 71 | 179 | 0.0 | 0.0 | 0.00 | 0.00 | 0.00 | 98 | 1015.1 |
| 20260502064417 | 71 | 182 | 0.0 | 0.0 | 0.00 | 0.00 | 0.00 | 98 | 1015.1 |
| 20260502063914 | 71 | 176 | 0.0 | 0.0 | 0.00 | 0.00 | 0.00 | 98 | 1015.1 |